146P/Shoemaker-LINEAR (2024)

Japanese version
Home page
Updated on August 10, 2025

---------------------------------------------------------------------

* Profile

* Pictures

* Orbital Elements

Epoch 2025 May 5.0 TT = JDT 2460800.5
T 2024 Aug. 5.42232 TT                                  Alexandersen
q   1.4188853            (2000.0)            P               Q
n   0.12200614     Peri.  317.05103     +0.93962159     -0.13359163
a   4.0260724      Node    53.36294     +0.30221383     +0.75586773
e   0.6475758      Incl.   23.11856     -0.16055551     +0.64095027
P   8.08
From 531 observations 2016 Oct. 10-2025 May 1, mean residual 0".6.
     Nongravitational parameters A1 = +0.09, A2 = +0.0295.

* Finding Charts

* Magnitudes Graph

        m1 =  9.5 + 5 log d + 30   log r(t + 15)  [   ,75]  (             - 2024 Oct. 19)
        m1 = 13.5 + 5 log d + 15.0 log r          [75,   ]  (2024 Oct. 19 -             )

---------------------------------------------------------------------

The orbital elements are published on M.P.E.C. 2025-J72.
The charts are made with StellaNavigator Ver.11 (AstroArts).
The magnitudes graphs are made with Comet for Windows.

---------------------------------------------------------------------

Copyright(C) Seiichi Yoshida (comet@aerith.net). All rights reserved.